Home > Weather > Metz > Past weeks

Flag for France Weather for the Past 2 Weeks in Metz, France

Now
50 °F

Light rain. Passing clouds.


Feels Like: 43 °F
Forecast: 42 / 49 °F
Wind: 24 mph from Southwest

Location: Metz-Nancy-Lorraine

Current Time: Feb 7, 2016 at 8:12:15 AM

Latest Report: Feb 7, 2016 at 7:30 AM


Visibility: N/A

Pressure: 29.56 "Hg

Humidity: 76%

Dew point: 43 °F

Location of MetzLocation

Historic Weather in Metz — Graph

°F

Metz Temperature Yesterday

Maximum temperature yesterday: 57 °F (at 2:00 PM)
Minimum temperature yesterday: 39 °F (at 4:30 AM)
Average temperature yesterday: 48 °F

High & Low Weather Summary for the Past Weeks

 TemperatureHumidityPressure
High57 °F (Jan 25, 3:00 PM)100% (Jan 23, 7:00 AM)30.60 "Hg (Jan 23, 7:00 AM)
Low30 °F (Jan 24, 5:30 AM)51% (Jan 25, 2:00 PM)29.53 "Hg (Feb 7, 6:30 AM)
Average45 °F86%30.23 "Hg
* Reported Jan 23 7:00 AM — Feb 7 7:00 AM, Metz, Weather by CustomWeather, © 2016

Note: Actual official high and low records may vary slightly from our data, if they occured in-between our weather recording intervals... More about our weather records

Advertising

Metz Weather History for the Previous 24 Hours

 ConditionsComfort  
Time TempWeatherWind HumidityBarometerVisibility
7:00 AM
Sun, Feb 7
52 °FLight rain. Clear.22 mph72%29.53 "HgN/A
6:30 AM52 °FPassing clouds.20 mph67%29.53 "HgN/A
6:00 AM54 °FClear.21 mph63%29.56 "Hg10 mi
5:30 AM54 °FClear.25 mph58%29.56 "Hg10 mi
5:00 AM54 °FClear.25 mph58%29.56 "Hg10 mi
4:30 AM54 °FClear.23 mph58%29.56 "Hg10 mi
4:00 AM54 °FClear.24 mph58%29.56 "Hg10 mi
3:30 AM52 °FClear.20 mph62%29.59 "Hg10 mi
3:00 AM54 °FClear.21 mph58%29.59 "Hg10 mi
2:30 AM52 °FClear.21 mph62%29.62 "Hg10 mi
2:00 AM52 °FClear.20 mph58%29.62 "Hg10 mi
1:00 AM52 °FClear.18 mph58%29.65 "Hg10 mi
12:30 AM50 °FClear.18 mph62%29.65 "Hg10 mi
12:00 AM50 °FPassing clouds.17 mph62%29.65 "HgN/A
11:30 PM
Sat, Feb 6
50 °FClear.16 mph62%29.68 "Hg10 mi
11:00 PM52 °FClear.20 mph58%29.68 "Hg10 mi
10:00 PM52 °FClear.18 mph62%29.71 "Hg10 mi
9:30 PM52 °FCool.18 mph62%29.68 "HgN/A
9:00 PM52 °FClear.18 mph62%29.71 "Hg10 mi
8:30 PM50 °FClear.16 mph67%29.71 "Hg10 mi
8:00 PM52 °FClear.17 mph62%29.74 "Hg10 mi
7:30 PM50 °FClear.18 mph67%29.74 "Hg10 mi
7:00 PM50 °FClear.14 mph67%29.77 "Hg10 mi
6:30 PM50 °FClear.14 mph71%29.77 "Hg10 mi
6:00 PM52 °FClear.13 mph67%29.80 "Hg10 mi
5:30 PM52 °FSunny.12 mph67%29.80 "Hg10 mi
5:00 PM54 °FSunny.13 mph63%29.80 "Hg10 mi
4:30 PM54 °FSunny.13 mph67%29.83 "Hg10 mi
4:00 PM55 °FSunny.13 mph59%29.83 "Hg10 mi
3:30 PM55 °FSunny.14 mph59%29.86 "Hg10 mi
3:00 PM55 °FSunny.13 mph63%29.89 "Hg10 mi
2:30 PM55 °FSunny.14 mph63%29.89 "Hg10 mi
2:00 PM57 °FSunny.10 mph55%29.92 "Hg10 mi
1:30 PM55 °FSunny.16 mph55%29.95 "Hg10 mi
1:00 PM54 °FSunny.17 mph63%29.95 "Hg10 mi
12:30 PM54 °FSunny.13 mph63%29.98 "Hg10 mi
12:00 PM52 °FSunny.14 mph72%30.01 "Hg10 mi
11:30 AM50 °FSunny.12 mph76%30.01 "Hg10 mi
11:00 AM48 °FSunny.12 mph76%30.01 "Hg10 mi
10:30 AM48 °FSunny.10 mph76%30.04 "Hg10 mi
10:00 AM45 °FSunny.12 mph87%30.01 "Hg10 mi
9:30 AM43 °FSunny.15 mph87%30.01 "Hg10 mi
9:00 AM43 °FSunny.12 mph87%30.04 "Hg10 mi
8:30 AM43 °FSunny.15 mph87%30.01 "Hg10 mi
8:00 AM43 °FSunny.13 mph87%30.01 "Hg10 mi
Weather by CustomWeather, © 2016

See weather overviewHow to use our weather pages